Regional Weather Roundup
Issued by NWS

Home | Current Version | Previous Version | Text Only | Print | Product List | Glossary On
Versions: 1 2 3 4 5 6 7 8 9 10 11 12 13 14 15 16 17 18 19 20 21 22 23 24 25 26 27 28 29 30 31 32 33 34 35 36 37 38 39 40 41 42 43 44 45 46 47 48 49 50
000
ASCA42 TJSJ 020210
RWRPR
PUERTO RICO/U.S. VIRGIN ISLANDS HOURLY WEATHER ROUNDUP
NATIONAL WEATHER SERVICE SAN JUAN PR
1000 PM AST WED JUL 01 2015

PRZ001-004-020300-
PUERTO RICO

CITY           SKY/WX    TMP DP  RH WIND       PRES   REMARKS
SAN JUAN LMM   PTCLDY    81  75  83 E12       30.10R
CEIBA          CLOUDY    81  72  74 E9        30.12R
$$

PRZ006-007-020300-
U.S. VIRGIN ISLANDS

CITY           SKY/WX    TMP DP  RH WIND       PRES   REMARKS
CHARLOTTE AMA  CLOUDY    82  72  69 E13G21    30.09R
CHRISTIANSTED  CLOUDY    81  72  74 E13       30.10R
$$

HOURLY WEATHER ROUNDUP FOR THE NEWS MEDIA

CITY           SKY/WX    TMP DP  RH WIND       PRES   REMARKS
ORLANDO        MOCLDY    82  70  66 SW15      30.14R
NEW YORK       MOCLDY    80  57  45 W13       29.86R
NEWARK         CLOUDY    79  59  50 W8        29.85R
CHICAGO        CLOUDY    56  50  80 NE8       30.00R
HARTFORD       CLEAR     69  65  86 SW7       29.79R
BOSTON         MOCLDY    71  63  75 W12       29.78R
DALLAS         MOCLDY    86  69  56 S17       29.93S HX  90
PHILADELPHIA   CLOUDY    81  58  45 W7        29.89R
LOS ANGELES    PTSUNNY   68  63  84 SW10      29.91R
WASHINGTON DC  PTCLDY    75  62  64 NE7       29.90R



USA.gov is the U.S. government's official web portal to all federal, state and local government web resources and services.